Theta_e
328 325 321 322 331 330 333 334 330 333 332 330 329 332 333 334 336 341 337 337 337 338 338 339 335 335 335 333 334 334 334 335 334 333 332 332 332 331 331 330 329 331 333 330 328 326 326 326 327
327 322 322 324 332 334 332 329 332 333 335 333 334 335 336 337 337 337 338 337 337 338 338 340 336 334 334 335 334 334 334 333 332 331 330 331 330 330 330 329 328 331 330 328 327 327 328 327 326
327 323 325 327 328 333 332 329 331 335 335 335 337 335 336 338 336 336 337 337 338 339 339 339 336 333 334 334 334 334 333 332 331 330 330 329 329 329 329 328 328 330 329 327 327 327 326 327 326
328 325 323 327 329 327 327 327 330 336 332 334 336 337 335 335 335 336 337 338 338 339 338 337 335 333 333 333 333 334 332 330 330 330 329 329 328 328 328 328 328 328 328 327 327 327 327 326 325
326 326 332 326 327 324 323 326 332 335 333 335 335 333 338 336 336 337 338 338 338 338 337 337 334 333 333 333 333 333 332 331 329 328 328 327 327 327 328 327 327 327 327 327 327 327 326 324 322
331 326 333 334 325 325 325 327 333 333 331 334 334 334 337 336 337 338 338 338 337 336 336 337 334 334 334 334 334 332 330 332 329 328 327 327 327 326 328 327 327 327 327 326 326 325 321 320 319
333 334 335 333 329 327 324 326 331 331 332 334 333 334 335 336 337 336 338 337 335 334 335 336 336 335 333 332 333 331 329 332 330 328 326 326 326 325 326 327 327 327 327 327 326 321 320 319 319
332 333 336 335 333 330 322 326 323 327 331 330 332 332 332 336 335 336 337 336 334 333 333 334 335 334 334 333 331 331 329 329 328 326 324 325 325 324 325 326 326 326 325 325 322 320 320 320 320
330 337 338 337 334 330 318 324 324 324 330 332 332 330 330 336 334 335 335 335 334 332 331 332 333 333 334 333 331 330 329 327 327 326 324 323 325 325 325 325 325 325 323 320 320 320 320 320 320
331 337 336 333 333 331 321 319 323 328 331 332 333 332 331 335 335 334 334 333 332 331 330 330 331 331 331 330 329 330 328 328 328 327 326 325 325 325 326 323 322 321 321 320 320 320 321 321 322
330 331 331 332 331 331 332 328 320 327 329 329 331 332 332 334 334 333 333 333 332 330 329 329 330 330 329 328 329 329 328 328 328 327 326 326 325 324 324 323 321 321 320 321 321 321 322 322 322
334 330 329 328 325 324 329 329 323 322 326 324 327 328 332 334 334 334 333 332 332 332 329 329 330 330 329 328 328 328 328 327 327 326 325 325 324 323 323 322 322 321 321 321 322 322 321 322 321
333 330 330 329 321 320 320 321 325 322 322 321 321 324 332 334 333 333 333 332 333 332 331 329 330 329 328 328 327 326 326 326 326 326 325 324 323 321 321 321 320 320 320 321 321 322 322 322 321
324 325 327 330 330 328 327 327 324 326 324 320 322 326 330 333 333 332 332 331 332 332 331 330 330 329 328 327 327 326 325 325 324 324 324 323 322 321 319 319 320 320 320 321 321 321 322 322 322
325 327 327 326 328 332 330 333 330 326 322 324 326 326 329 331 333 333 332 331 333 332 330 330 330 330 328 327 326 326 325 325 324 323 323 322 322 321 318 318 319 319 319 320 321 321 321 322 322
328 327 328 324 327 327 327 319 319 328 328 328 327 328 329 330 331 332 332 331 332 332 331 330 329 329 329 328 327 326 325 325 324 323 322 322 321 322 321 319 318 318 318 320 321 321 322 322 323
328 330 330 328 327 328 329 321 323 323 326 330 331 330 329 329 330 331 331 331 331 332 331 330 329 328 329 328 327 326 325 325 324 324 322 322 322 323 323 321 319 320 320 320 321 321 322 323 323
328 329 329 328 325 328 327 327 324 325 327 328 328 328 328 328 329 329 331 332 332 332 332 331 330 330 329 328 327 327 326 326 325 324 324 322 323 323 324 324 323 321 322 322 322 322 323 323 323
325 327 328 326 323 327 325 326 324 323 323 326 326 328 328 328 327 328 329 330 331 332 332 331 330 330 329 328 328 327 326 326 325 325 324 323 322 323 324 324 324 322 322 322 322 323 323 323 323
323 325 326 324 323 325 325 325 323 323 322 323 324 325 328 328 326 326 327 329 330 331 332 332 331 330 330 329 328 327 327 326 325 325 324 323 322 322 323 324 325 324 323 323 323 323 323 323 323
325 325 324 326 322 322 323 325 323 322 321 321 321 322 324 327 327 326 326 327 329 330 331 332 332 331 330 330 329 329 328 327 327 326 325 323 323 322 324 325 325 325 324 324 323 323 323 324 323
328 325 324 324 325 329 322 329 325 322 321 321 321 322 321 323 325 326 326 326 327 329 330 331 331 331 330 330 330 329 328 328 327 327 327 325 323 323 324 324 325 325 325 324 324 324 324 324 324
325 323 325 326 327 326 325 326 325 322 323 321 320 321 321 321 321 323 323 324 326 328 329 330 331 331 331 330 329 329 329 329 330 329 328 326 325 323 322 322 323 324 324 324 324 324 324 324 324
323 324 324 324 326 329 326 327 326 325 323 322 321 320 321 321 321 321 320 321 324 326 328 329 330 330 331 329 329 329 329 330 330 329 328 326 326 325 325 324 324 324 324 324 324 324 324 324 324
322 324 327 329 327 330 322 327 326 323 322 321 320 319 319 320 321 321 320 320 320 324 327 329 329 330 330 330 329 329 329 329 330 330 328 328 327 326 325 325 324 324 324 324 324 324 323 323 323
324 323 323 326 330 326 320 326 324 321 321 320 318 318 319 319 320 320 319 319 318 321 325 327 328 328 329 330 330 329 329 329 330 330 329 328 328 327 326 325 325 325 325 324 324 323 323 323 323
320 325 321 323 311 323 321 321 319 319 320 319 318 317 317 319 319 318 318 318 317 318 322 325 326 327 327 328 329 330 329 329 329 329 329 329 328 328 328 327 325 325 325 325 324 323 324 323 323
322 321 324 322 327 327 321 322 321 321 321 320 320 320 320 319 319 319 318 317 315 315 318 323 325 326 326 327 328 328 329 329 329 329 329 329 329 328 326 326 325 325 325 324 323 322 322 323 322
322 322 323 323 324 327 326 322 319 320 319 320 320 319 319 318 318 318 317 316 316 313 314 319 324 325 325 326 326 327 328 329 329 329 329 329 328 327 326 325 325 325 324 323 323 322 322 323 322
319 321 321 324 325 324 323 323 315 317 318 319 318 316 315 315 314 313 314 314 311 312 312 316 321 324 325 325 325 326 327 328 329 329 329 328 328 327 326 325 325 325 324 323 322 321 322 322 323
Wind_Speed
19 14 7 3 4 2 0 2 0 4 6 3 5 3 2 4 2 3 5 7 14 15 15 13 14 16 16 15 15 14 14 14 14 13 13 14 14 16 17 16 16 17 18 18 17 18 18 19 19
18 12 3 2 3 4 1 3 4 4 4 8 5 3 3 1 1 3 10 8 15 14 15 14 15 15 15 15 14 13 14 14 14 14 14 14 14 15 16 16 15 16 16 16 17 18 18 18 18
11 14 4 2 0 6 1 1 3 5 8 5 3 1 0 1 2 8 4 15 16 14 13 15 15 14 14 14 14 13 13 14 15 14 14 14 15 15 16 16 15 16 15 16 17 18 17 17 16
8 5 1 4 3 2 3 1 5 10 3 3 1 3 2 1 3 9 12 17 16 14 13 15 16 15 14 14 14 13 11 14 15 14 14 14 14 15 16 15 15 16 15 16 17 16 16 15 15
6 1 5 3 3 3 2 4 8 10 4 4 4 2 1 4 3 9 16 17 16 13 13 13 15 15 14 14 14 13 13 14 12 14 14 13 13 15 16 15 15 16 14 15 15 15 15 15 15
1 3 6 11 5 3 2 2 7 7 3 4 3 3 3 4 8 12 16 17 15 13 13 13 14 14 14 13 14 12 11 14 11 13 13 12 13 13 14 15 14 15 14 14 13 14 14 14 13
8 8 14 12 8 5 1 3 5 7 4 3 1 3 1 8 9 14 17 16 14 12 12 13 13 14 15 13 13 11 11 15 11 11 12 12 12 12 13 13 13 14 13 13 12 13 13 12 12
2 7 14 11 10 6 1 5 2 6 5 2 3 3 1 10 13 15 17 16 13 13 13 14 14 14 13 12 12 12 13 13 11 11 11 15 13 12 11 12 12 12 12 12 11 11 10 10 10
1 7 14 19 16 7 1 3 3 1 3 3 5 2 2 13 17 17 17 16 14 13 14 15 15 15 13 12 13 15 15 13 11 10 9 12 10 10 10 10 12 11 11 11 10 9 8 8 8
6 12 19 15 16 13 5 3 1 3 5 6 6 6 5 16 19 21 20 18 17 16 16 16 16 16 14 13 15 15 14 13 11 11 11 9 10 10 10 12 13 13 12 10 8 7 7 6 4
3 13 14 13 17 19 18 13 4 5 7 10 10 10 12 18 19 21 20 20 20 19 17 17 17 16 16 15 16 15 15 14 12 12 12 9 9 9 9 9 10 10 10 6 5 4 3 4 3
7 10 9 7 6 7 12 11 11 12 9 2 3 4 16 18 22 23 22 21 20 20 20 19 18 18 17 17 17 16 16 15 14 12 13 11 10 10 10 9 10 9 8 7 5 4 5 3 3
10 9 9 5 4 5 1 12 13 11 10 6 5 7 14 17 22 22 21 21 21 22 21 21 20 20 19 19 18 17 17 17 15 15 15 13 12 12 12 12 12 12 12 9 6 6 5 5 4
6 14 7 4 9 6 7 13 5 10 10 9 9 11 13 17 22 20 23 23 23 24 23 21 23 21 20 20 19 18 17 16 16 16 16 15 13 13 13 12 11 11 11 10 7 6 6 6 6
9 7 8 12 8 6 7 17 15 18 9 11 10 10 11 15 19 26 25 26 26 26 23 22 23 22 22 21 19 18 17 17 17 16 16 17 16 15 14 13 12 11 11 10 8 7 7 7 7
6 7 16 11 10 6 10 23 16 17 19 22 22 18 12 15 22 23 24 26 26 26 26 24 22 25 23 22 20 18 17 18 17 16 16 18 18 16 15 14 13 12 11 10 9 9 9 9 9
5 8 23 17 11 5 14 16 11 15 17 20 21 21 18 16 19 24 26 26 26 28 27 26 24 25 25 23 20 20 18 19 18 17 17 19 19 18 16 15 14 13 12 11 10 11 11 10 10
15 19 17 16 8 11 13 18 18 12 8 17 18 17 16 18 21 26 27 28 27 27 28 27 27 25 25 23 22 20 19 20 19 20 20 20 20 20 19 16 15 15 13 13 13 13 11 10 11
14 18 18 12 8 7 15 18 20 18 17 20 20 17 18 20 23 20 24 27 27 28 28 30 28 27 26 27 26 24 25 23 22 22 22 22 22 22 21 19 17 17 16 16 15 13 13 13 11
13 11 14 9 6 7 12 19 21 22 18 21 22 21 23 20 18 23 22 25 30 31 31 31 32 31 31 28 28 24 25 24 24 22 24 25 24 24 23 21 19 18 18 18 17 16 15 15 13
17 18 9 11 3 9 9 20 25 19 20 22 23 24 24 23 21 20 24 28 29 32 36 35 36 36 35 32 27 24 18 20 22 25 25 29 29 29 26 25 23 21 21 19 20 20 19 17 15
14 13 12 13 4 7 1 9 19 13 14 15 19 21 23 24 22 21 23 27 31 35 34 36 39 38 37 35 31 31 30 28 27 24 25 24 29 29 27 28 25 24 22 23 23 22 21 20 18
8 13 19 20 17 11 14 7 18 15 19 20 20 19 21 21 22 23 24 31 35 35 36 39 38 38 38 37 38 35 33 30 27 24 23 24 27 32 33 31 29 26 26 26 24 22 23 23 22
11 5 2 3 4 8 22 15 12 18 21 21 22 21 19 19 20 22 31 31 30 30 32 34 37 39 40 40 42 40 39 34 27 28 25 25 26 27 32 32 31 28 29 28 27 26 24 24 24
18 7 2 4 6 9 6 15 22 16 18 20 19 17 17 15 15 17 20 21 28 29 32 34 36 38 39 39 40 42 40 37 36 32 31 27 27 25 29 31 32 34 30 29 26 26 25 27 27
25 22 9 9 7 12 6 11 9 20 23 23 20 18 14 14 12 14 17 21 26 28 32 34 36 37 38 41 43 42 41 39 37 35 31 30 29 29 29 27 29 30 27 26 26 27 27 27 27
20 17 25 13 1 5 6 17 9 9 12 14 17 18 19 17 15 17 15 21 24 25 30 34 35 35 36 40 40 39 39 38 36 36 35 31 29 28 25 24 25 25 26 25 24 25 25 27 27
11 7 6 5 9 13 13 22 14 8 16 17 18 18 17 15 13 14 14 18 20 23 27 31 34 36 37 37 37 37 38 39 38 33 33 32 30 26 25 25 24 23 23 22 22 24 26 24 26
8 11 9 4 4 11 14 14 18 19 19 19 17 12 12 12 12 13 13 19 20 18 21 26 29 31 31 33 34 34 33 34 33 33 32 32 28 26 27 25 23 23 22 22 22 24 24 24 26
23 15 17 9 6 6 8 16 2 4 8 14 10 6 10 12 12 11 11 13 14 16 18 23 25 28 31 31 31 33 32 32 32 33 31 29 28 27 26 24 25 25 25 23 23 23 26 25 23
Wind_Direction
8 345 351 34 263 281 263 130 130 154 162 109 136 207 275 358 321 11 129 142 146 145 147 145 155 153 149 142 133 125 119 119 118 118 120 116 112 112 114 113 109 105 103 100 96 98 97 94 93
357 357 9 59 270 262 91 123 194 140 103 131 130 154 201 115 81 91 142 161 153 149 150 148 152 152 152 145 137 132 130 125 121 121 125 119 116 116 119 117 110 110 106 102 101 100 98 96 95
341 25 340 20 18 259 310 157 154 119 133 166 153 288 95 60 151 164 151 156 157 153 153 158 156 158 157 151 146 142 136 130 124 126 126 123 121 122 124 123 116 114 108 104 105 103 101 100 98
352 23 65 295 285 290 333 54 161 151 171 200 197 182 171 238 180 177 156 158 160 159 155 164 161 164 164 160 155 148 138 126 128 126 126 127 124 123 125 120 119 117 111 108 109 107 106 101 95
72 327 249 294 284 296 312 310 185 172 156 166 196 162 183 136 153 164 159 161 163 163 160 164 171 167 168 168 161 153 145 145 136 131 131 128 125 125 127 128 121 123 118 115 115 112 107 99 93
164 150 242 255 276 298 324 253 186 196 157 140 211 174 154 159 157 164 163 164 166 168 162 169 174 172 170 169 165 154 154 154 148 136 136 130 129 126 129 130 125 126 125 120 121 113 106 98 90
230 203 212 238 265 283 25 151 199 202 196 205 146 206 130 181 177 169 166 169 168 172 172 166 171 174 169 166 166 167 159 167 158 146 142 142 136 136 133 133 132 129 125 128 124 113 107 101 94
211 212 214 221 240 248 125 182 216 217 206 91 195 230 189 186 172 169 170 174 177 177 182 177 173 174 173 172 175 175 169 175 173 162 152 157 150 139 133 135 137 136 133 130 127 121 118 109 98
203 206 223 222 215 217 168 218 139 148 195 193 202 254 74 158 160 167 170 180 184 187 188 188 183 183 183 176 176 177 175 182 178 173 167 162 151 146 134 153 149 148 139 134 128 125 129 123 107
211 225 228 231 236 217 176 184 200 236 204 219 221 196 141 164 169 180 182 185 185 190 192 193 190 188 183 177 170 174 172 177 177 171 163 163 157 156 151 153 159 160 156 147 140 134 129 114 108
213 234 237 248 253 241 232 238 156 239 240 241 231 197 170 179 187 192 197 199 194 192 192 194 193 190 182 180 177 180 181 183 183 182 184 176 166 161 160 160 161 167 166 155 145 146 149 154 142
222 243 248 246 222 207 225 244 218 218 250 6 241 210 176 187 194 198 203 200 202 199 196 197 196 191 190 184 185 190 190 190 191 192 186 181 179 178 178 175 178 178 183 181 179 179 179 164 162
230 231 231 247 246 237 304 235 221 221 240 230 260 203 197 196 203 205 208 207 203 208 201 200 200 196 195 190 190 195 199 200 200 194 193 185 187 187 191 191 185 186 189 192 196 191 190 186 187
317 242 238 234 230 243 237 252 265 229 241 235 224 223 210 204 203 206 208 207 210 211 207 203 203 202 199 199 198 199 202 204 201 199 197 195 194 196 194 196 200 199 197 197 199 201 199 204 205
299 257 242 233 227 231 226 252 234 249 215 225 214 222 218 212 207 212 211 212 212 213 208 204 206 206 204 203 205 202 204 202 204 204 202 201 199 200 200 203 205 206 205 203 207 210 209 213 220
278 263 243 222 200 219 198 260 247 238 239 241 240 237 226 216 216 217 214 215 216 214 211 205 207 205 208 207 208 210 208 208 210 208 207 206 205 203 204 207 210 208 208 211 213 214 216 222 228
214 275 237 250 202 195 209 261 258 257 238 245 245 241 236 232 221 219 216 213 214 212 212 210 208 209 209 209 211 212 214 213 213 212 211 211 209 210 211 213 212 207 208 215 217 219 220 226 233
221 222 237 233 193 212 227 245 255 250 243 251 254 248 242 231 229 220 216 214 213 210 211 212 212 211 208 208 211 215 216 217 216 217 215 214 215 215 216 219 216 213 214 216 219 222 226 229 234
258 234 244 239 223 217 243 249 255 259 251 254 255 253 246 238 237 229 219 215 213 213 207 211 211 212 206 205 206 212 217 216 219 222 221 217 218 219 218 221 221 217 221 223 223 225 227 232 228
211 205 226 253 227 224 262 266 264 260 254 249 252 253 250 243 242 230 221 211 211 211 212 210 210 211 209 209 210 212 217 224 221 223 223 221 220 220 221 221 223 221 222 225 224 220 225 233 218
204 213 190 237 197 236 278 274 267 254 246 247 249 246 248 245 234 228 221 214 214 212 213 211 210 210 210 211 211 212 218 223 221 222 224 224 223 224 222 225 225 224 225 228 226 225 225 233 226
240 213 221 235 253 256 165 285 271 264 243 240 247 243 244 244 238 235 231 217 213 216 215 213 212 211 210 208 207 207 209 211 219 222 225 224 226 225 225 229 228 228 228 231 230 227 228 232 238
255 238 212 221 233 246 236 260 267 266 260 258 255 245 242 242 241 235 231 224 218 214 209 211 213 213 211 206 206 206 215 222 223 225 224 222 227 229 230 229 229 229 230 235 233 232 230 233 238
156 126 283 149 227 236 235 218 246 253 256 256 253 250 247 242 238 237 235 231 227 220 211 210 213 214 210 207 208 208 214 216 216 220 219 220 224 229 231 232 231 230 233 236 236 236 235 235 237
226 169 239 225 207 240 240 218 240 256 249 253 257 254 246 249 248 241 235 229 225 215 209 209 211 214 211 210 212 213 216 215 217 217 217 221 223 224 229 228 230 233 234 236 236 236 235 235 236
212 210 210 227 214 246 141 232 251 225 245 246 245 254 261 255 248 240 235 230 225 218 212 211 211 212 210 210 213 215 215 217 219 220 221 223 224 224 231 228 229 234 233 234 236 237 237 236 236
210 219 225 266 338 295 228 258 271 217 241 247 247 248 249 252 244 241 238 231 225 224 219 214 215 215 212 212 214 215 216 217 218 221 222 223 224 228 225 224 228 229 233 233 234 233 235 233 237
224 217 201 210 226 241 236 253 251 214 239 242 255 255 255 259 262 254 250 239 226 223 226 221 218 216 213 212 212 213 215 217 218 218 220 221 224 223 222 223 228 229 231 231 228 230 237 231 238
190 218 217 228 209 230 244 250 255 249 232 234 236 254 268 265 261 262 254 242 229 222 221 223 220 218 215 212 212 213 215 217 218 218 219 220 221 220 223 225 226 229 229 227 225 230 236 232 240
220 213 219 231 221 236 268 266 232 237 263 240 244 262 272 270 269 273 271 255 227 212 215 220 217 217 217 213 210 212 214 213 213 217 218 219 220 221 224 225 229 232 232 230 228 229 239 236 235